Time,TemperatureF,DewpointF,PressureIn,WindDirection,WindDirectionDegrees,WindSpeedMPH,WindSpeedGustMPH,Humidity,HourlyPrecipIn,Conditions,Clouds,dailyrainin,SoftwareType,DateUTC
2017-02-21 00:04:00,68.0,60.5,30.01,NNE,22,1.0,3.0,77,0.00,,---,0.00,VWS V15.00,2017-02-21 05:04:00,
2017-02-21 00:09:00,67.9,60.4,30.01,NNE,22,1.0,3.0,77,0.00,,---,0.00,VWS V15.00,2017-02-21 05:09:00,
2017-02-21 00:14:00,67.9,60.4,30.02,NNE,22,0.0,3.0,77,0.00,,---,0.00,VWS V15.00,2017-02-21 05:14:00,
2017-02-21 00:19:00,67.9,60.4,30.01,NNE,22,3.0,3.0,77,0.00,,---,0.00,VWS V15.00,2017-02-21 05:19:00,
2017-02-21 00:24:00,67.8,60.3,30.01,NNE,22,3.0,4.0,77,0.00,,---,0.00,VWS V15.00,2017-02-21 05:24:00,
2017-02-21 00:29:00,67.8,60.3,30.01,NNE,22,2.0,5.0,77,0.00,,---,0.00,VWS V15.00,2017-02-21 05:29:00,
2017-02-21 00:34:00,67.9,60.4,30.01,NNE,23,2.0,5.0,77,0.00,,---,0.00,VWS V15.00,2017-02-21 05:34:00,
2017-02-21 00:39:00,68.2,60.3,30.01,North,360,3.0,6.0,76,0.00,,---,0.00,VWS V15.00,2017-02-21 05:39:00,
2017-02-21 00:44:00,68.5,60.6,30.01,North,360,2.0,6.0,76,0.00,,---,0.00,VWS V15.00,2017-02-21 05:44:00,
2017-02-21 00:49:00,68.6,60.4,30.00,North,360,4.0,6.0,75,0.00,,---,0.00,VWS V15.00,2017-02-21 05:49:00,
2017-02-21 00:54:00,68.6,60.4,30.01,North,360,4.0,6.0,75,0.00,,---,0.00,VWS V15.00,2017-02-21 05:54:00,
2017-02-21 00:59:00,68.7,60.5,30.00,North,360,2.0,6.0,75,0.00,,---,0.00,VWS V15.00,2017-02-21 05:59:00,
2017-02-21 01:04:00,68.7,60.5,30.00,North,360,3.0,4.0,75,0.00,,---,0.00,VWS V15.00,2017-02-21 06:04:00,
2017-02-21 01:09:00,68.7,60.5,30.00,North,360,4.0,5.0,75,0.00,,---,0.00,VWS V15.00,2017-02-21 06:09:00,
2017-02-21 01:14:00,68.8,60.6,30.00,North,360,4.0,5.0,75,0.00,,---,0.00,VWS V15.00,2017-02-21 06:14:00,
2017-02-21 01:19:00,68.8,60.6,30.00,North,360,1.0,5.0,75,0.00,,---,0.00,VWS V15.00,2017-02-21 06:19:00,
2017-02-21 01:24:00,68.7,60.8,30.00,North,360,3.0,5.0,76,0.00,,---,0.00,VWS V15.00,2017-02-21 06:24:00,
2017-02-21 01:29:00,68.3,60.1,30.00,North,360,2.0,5.0,75,0.00,,---,0.00,VWS V15.00,2017-02-21 06:29:00,
2017-02-21 01:34:00,68.3,60.1,30.00,North,360,3.0,4.0,75,0.00,,---,0.00,VWS V15.00,2017-02-21 06:34:00,
2017-02-21 01:39:00,68.4,60.2,30.00,NNE,23,2.0,4.0,75,0.00,,---,0.00,VWS V15.00,2017-02-21 06:39:00,
2017-02-21 01:44:00,68.4,60.2,30.00,North,360,3.0,6.0,75,0.00,,---,0.00,VWS V15.00,2017-02-21 06:44:00,
2017-02-21 01:49:00,68.3,60.1,30.00,North,360,2.0,6.0,75,0.00,,---,0.00,VWS V15.00,2017-02-21 06:49:00,
2017-02-21 01:54:00,68.2,60.0,30.00,North,360,3.0,6.0,75,0.00,,---,0.00,VWS V15.00,2017-02-21 06:54:00,
2017-02-21 01:59:00,68.1,60.3,30.00,North,360,1.0,6.0,76,0.00,,---,0.00,VWS V15.00,2017-02-21 06:59:00,
2017-02-21 02:04:00,68.0,60.2,30.00,North,360,2.0,3.0,76,0.00,,---,0.00,VWS V15.00,2017-02-21 07:04:00,
2017-02-21 02:09:00,68.0,60.2,30.00,NNE,23,1.0,3.0,76,0.00,,---,0.00,VWS V15.00,2017-02-21 07:09:00,
2017-02-21 02:14:00,67.9,60.1,30.00,North,360,0.0,3.0,76,0.00,,---,0.00,VWS V15.00,2017-02-21 07:14:00,
2017-02-21 02:19:00,67.8,60.0,30.00,North,360,1.0,3.0,76,0.00,,---,0.00,VWS V15.00,2017-02-21 07:19:00,
2017-02-21 02:24:00,67.6,59.8,30.00,North,360,2.0,3.0,76,0.00,,---,0.00,VWS V15.00,2017-02-21 07:24:00,
2017-02-21 02:29:00,67.6,60.1,30.00,North,360,1.0,3.0,77,0.00,,---,0.00,VWS V15.00,2017-02-21 07:29:00,
2017-02-21 02:34:00,67.5,60.0,30.00,North,360,1.0,1.0,77,0.00,,---,0.00,VWS V15.00,2017-02-21 07:34:00,
2017-02-21 02:39:00,67.3,59.8,30.00,NNE,23,1.0,2.0,77,0.00,,---,0.00,VWS V15.00,2017-02-21 07:39:00,
2017-02-21 02:44:00,67.1,59.7,30.00,NNE,23,1.0,2.0,77,0.00,,---,0.00,VWS V15.00,2017-02-21 07:44:00,
2017-02-21 02:49:00,67.1,59.7,30.00,NNE,23,0.0,2.0,77,0.00,,---,0.00,VWS V15.00,2017-02-21 07:49:00,
2017-02-21 02:54:00,67.1,60.0,30.00,NNE,23,0.0,2.0,78,0.00,,---,0.00,VWS V15.00,2017-02-21 07:54:00,
2017-02-21 02:59:00,67.0,59.9,30.00,NNE,23,0.0,2.0,78,0.00,,---,0.00,VWS V15.00,2017-02-21 07:59:00,
2017-02-21 03:04:00,66.9,60.2,30.00,NNE,23,1.0,1.0,79,0.00,,---,0.00,VWS V15.00,2017-02-21 08:04:00,
2017-02-21 03:09:00,66.5,59.8,30.00,NNE,23,1.0,1.0,79,0.00,,---,0.00,VWS V15.00,2017-02-21 08:09:00,
2017-02-21 03:14:00,66.4,59.7,30.00,NNE,23,1.0,2.0,79,0.00,,---,0.00,VWS V15.00,2017-02-21 08:14:00,
2017-02-21 03:19:00,66.3,60.0,29.99,NNE,23,1.0,2.0,80,0.00,,---,0.00,VWS V15.00,2017-02-21 08:19:00,
2017-02-21 03:24:00,66.0,59.3,29.99,NNE,23,1.0,2.0,79,0.00,,---,0.00,VWS V15.00,2017-02-21 08:24:00,
2017-02-21 03:29:00,66.0,59.0,29.99,NNE,23,2.0,3.0,78,0.00,,---,0.00,VWS V15.00,2017-02-21 08:29:00,
2017-02-21 03:34:00,66.2,59.2,29.99,NNE,23,2.0,3.0,78,0.00,,---,0.00,VWS V15.00,2017-02-21 08:34:00,
2017-02-21 03:39:00,66.4,59.3,29.99,North,360,0.0,3.0,78,0.00,,---,0.00,VWS V15.00,2017-02-21 08:39:00,
2017-02-21 03:44:00,66.6,59.5,29.99,NNE,23,0.0,3.0,78,0.00,,---,0.00,VWS V15.00,2017-02-21 08:44:00,
2017-02-21 03:49:00,66.7,59.3,30.00,NNE,23,1.0,3.0,77,0.00,,---,0.00,VWS V15.00,2017-02-21 08:49:00,
2017-02-21 03:54:00,66.8,59.4,30.00,NNE,23,1.0,3.0,77,0.00,,---,0.00,VWS V15.00,2017-02-21 08:54:00,
2017-02-21 03:59:00,66.9,59.5,30.00,North,360,1.0,3.0,77,0.00,,---,0.00,VWS V15.00,2017-02-21 08:59:00,
2017-02-21 04:04:00,66.8,59.4,30.00,NNE,23,2.0,2.0,77,0.00,,---,0.00,VWS V15.00,2017-02-21 09:04:00,
2017-02-21 04:09:00,66.8,59.0,30.00,NNE,23,1.0,2.0,76,0.00,,---,0.00,VWS V15.00,2017-02-21 09:09:00,
2017-02-21 04:14:00,66.8,59.4,30.00,NNE,23,1.0,3.0,77,0.00,,---,0.00,VWS V15.00,2017-02-21 09:14:00,
2017-02-21 04:19:00,66.8,59.4,30.00,NNE,22,1.0,3.0,77,0.00,,---,0.00,VWS V15.00,2017-02-21 09:19:00,
2017-02-21 04:24:00,66.8,59.4,30.00,NNE,23,1.0,3.0,77,0.00,,---,0.00,VWS V15.00,2017-02-21 09:24:00,
2017-02-21 04:29:00,66.7,59.3,30.00,NNE,23,1.0,3.0,77,0.00,,---,0.00,VWS V15.00,2017-02-21 09:29:00,
2017-02-21 04:34:00,66.7,59.3,30.00,NNE,23,2.0,3.0,77,0.00,,---,0.00,VWS V15.00,2017-02-21 09:34:00,
2017-02-21 04:39:00,66.7,58.9,30.00,NNE,24,3.0,3.0,76,0.00,,---,0.00,VWS V15.00,2017-02-21 09:39:00,
2017-02-21 04:44:00,66.9,59.5,30.00,NNE,23,1.0,3.0,77,0.00,,---,0.00,VWS V15.00,2017-02-21 09:44:00,
2017-02-21 04:49:00,66.8,59.0,30.00,NNE,23,0.0,3.0,76,0.00,,---,0.00,VWS V15.00,2017-02-21 09:49:00,
2017-02-21 04:54:00,66.8,59.4,30.00,NNE,23,0.0,3.0,77,0.00,,---,0.00,VWS V15.00,2017-02-21 09:54:00,
2017-02-21 04:59:00,66.7,59.6,30.00,NNE,23,0.0,3.0,78,0.00,,---,0.00,VWS V15.00,2017-02-21 09:59:00,
2017-02-21 05:04:00,66.5,59.4,30.00,North,360,1.0,2.0,78,0.00,,---,0.00,VWS V15.00,2017-02-21 10:04:00,
2017-02-21 05:09:00,66.3,59.2,30.00,NNE,23,1.0,2.0,78,0.00,,---,0.00,VWS V15.00,2017-02-21 10:09:00,
2017-02-21 05:14:00,66.1,59.4,30.00,NNE,23,1.0,2.0,79,0.00,,---,0.00,VWS V15.00,2017-02-21 10:14:00,
2017-02-21 05:19:00,65.9,59.2,30.00,NNE,23,1.0,2.0,79,0.00,,---,0.00,VWS V15.00,2017-02-21 10:19:00,
2017-02-21 05:24:00,65.8,59.1,30.00,NNE,22,1.0,2.0,79,0.00,,---,0.00,VWS V15.00,2017-02-21 10:24:00,
2017-02-21 05:29:00,65.7,59.0,30.00,NNE,23,0.0,2.0,79,0.00,,---,0.00,VWS V15.00,2017-02-21 10:29:00,
2017-02-21 05:34:00,65.8,59.1,30.00,NNE,23,1.0,1.0,79,0.00,,---,0.00,VWS V15.00,2017-02-21 10:34:00,
2017-02-21 05:39:00,65.7,59.0,30.00,North,360,1.0,2.0,79,0.00,,---,0.00,VWS V15.00,2017-02-21 10:39:00,
2017-02-21 05:44:00,65.7,59.0,30.01,NNE,23,0.0,2.0,79,0.00,,---,0.00,VWS V15.00,2017-02-21 10:44:00,
2017-02-21 05:49:00,65.6,58.9,30.01,NNE,23,0.0,2.0,79,0.00,,---,0.00,VWS V15.00,2017-02-21 10:49:00,
2017-02-21 05:54:00,65.4,58.7,30.01,NNE,23,1.0,2.0,79,0.00,,---,0.00,VWS V15.00,2017-02-21 10:54:00,
2017-02-21 05:59:00,65.4,59.1,30.01,NNE,22,0.0,2.0,80,0.00,,---,0.00,VWS V15.00,2017-02-21 10:59:00,
2017-02-21 06:04:00,65.3,59.0,30.01,NNE,22,0.0,0.0,80,0.00,,---,0.00,VWS V15.00,2017-02-21 11:04:00,
2017-02-21 06:09:00,65.1,59.1,30.01,NNE,22,0.0,0.0,81,0.00,,---,0.00,VWS V15.00,2017-02-21 11:09:00,
2017-02-21 06:14:00,64.7,58.7,30.02,North,360,0.0,0.0,81,0.00,,---,0.00,VWS V15.00,2017-02-21 11:14:00,
2017-02-21 06:19:00,64.5,58.9,30.02,NNE,22,0.0,0.0,82,0.00,,---,0.00,VWS V15.00,2017-02-21 11:19:00,
2017-02-21 06:24:00,64.2,58.6,30.02,NNE,22,0.0,0.0,82,0.00,,---,0.00,VWS V15.00,2017-02-21 11:24:00,
2017-02-21 06:29:00,64.0,58.7,30.02,NNE,22,0.0,0.0,83,0.00,,---,0.00,VWS V15.00,2017-02-21 11:29:00,
2017-02-21 06:34:00,64.0,58.7,30.02,NNE,22,0.0,0.0,83,0.00,,---,0.00,VWS V15.00,2017-02-21 11:34:00,
2017-02-21 06:39:00,63.9,58.6,30.02,NNE,22,0.0,0.0,83,0.00,,---,0.00,VWS V15.00,2017-02-21 11:39:00,
2017-02-21 06:44:00,63.8,58.5,30.02,NNE,22,0.0,0.0,83,0.00,,---,0.00,VWS V15.00,2017-02-21 11:44:00,
2017-02-21 06:49:00,63.7,58.8,30.02,NNE,22,0.0,0.0,84,0.00,,---,0.00,VWS V15.00,2017-02-21 11:49:00,
2017-02-21 06:54:00,63.8,58.9,30.02,NNE,22,0.0,0.0,84,0.00,,---,0.00,VWS V15.00,2017-02-21 11:54:00,
2017-02-21 06:59:00,63.7,58.8,30.03,NNE,22,0.0,0.0,84,0.00,,---,0.00,VWS V15.00,2017-02-21 11:59:00,
2017-02-21 07:04:00,63.7,59.1,30.03,NNE,22,1.0,2.0,85,0.00,,---,0.00,VWS V15.00,2017-02-21 12:04:00,
2017-02-21 07:09:00,63.6,59.0,30.03,NNE,22,0.0,2.0,85,0.00,,---,0.00,VWS V15.00,2017-02-21 12:09:00,
2017-02-21 07:14:00,63.5,58.9,30.03,NNE,22,0.0,2.0,85,0.00,,---,0.00,VWS V15.00,2017-02-21 12:14:00,
2017-02-21 07:19:00,63.4,58.8,30.03,NNE,22,0.0,2.0,85,0.00,,---,0.00,VWS V15.00,2017-02-21 12:19:00,
2017-02-21 07:24:00,63.4,58.8,30.03,NNE,22,0.0,2.0,85,0.00,,---,0.00,VWS V15.00,2017-02-21 12:24:00,
2017-02-21 07:29:00,63.4,58.8,30.03,NNE,22,0.0,2.0,85,0.00,,---,0.00,VWS V15.00,2017-02-21 12:29:00,
2017-02-21 07:34:00,63.6,59.3,30.03,NNE,22,1.0,2.0,86,0.00,,---,0.00,VWS V15.00,2017-02-21 12:34:00,
2017-02-21 07:39:00,63.7,59.4,30.03,NNE,22,1.0,2.0,86,0.00,,---,0.00,VWS V15.00,2017-02-21 12:39:00,
2017-02-21 07:44:00,64.0,59.7,30.03,NNE,23,0.0,2.0,86,0.00,,---,0.00,VWS V15.00,2017-02-21 12:44:00,
2017-02-21 07:49:00,64.2,59.6,30.03,NNE,23,1.0,2.0,85,0.00,,---,0.00,VWS V15.00,2017-02-21 12:49:00,
2017-02-21 07:54:00,64.4,59.8,30.04,NNE,23,0.0,2.0,85,0.00,,---,0.00,VWS V15.00,2017-02-21 12:54:00,
2017-02-21 07:59:00,64.7,60.1,30.03,NNE,23,1.0,2.0,85,0.00,,---,0.00,VWS V15.00,2017-02-21 12:59:00,
2017-02-21 08:04:00,64.9,60.3,30.04,NNE,23,0.0,2.0,85,0.00,,---,0.00,VWS V15.00,2017-02-21 13:04:00,
2017-02-21 08:09:00,65.2,60.6,30.04,NNE,23,0.0,2.0,85,0.00,,---,0.00,VWS V15.00,2017-02-21 13:09:00,
2017-02-21 08:14:00,65.6,60.6,30.04,NNE,19,1.0,2.0,84,0.00,,---,0.00,VWS V15.00,2017-02-21 13:14:00,
2017-02-21 08:19:00,66.0,61.0,30.04,NNE,19,1.0,2.0,84,0.00,,---,0.00,VWS V15.00,2017-02-21 13:19:00,
2017-02-21 08:24:00,66.4,61.1,30.04,NNE,19,2.0,2.0,83,0.00,,---,0.00,VWS V15.00,2017-02-21 13:24:00,
2017-02-21 08:29:00,66.9,61.6,30.04,NNE,19,0.0,2.0,83,0.00,,---,0.00,VWS V15.00,2017-02-21 13:29:00,
2017-02-21 08:34:00,67.2,61.5,30.04,NNE,19,1.0,2.0,82,0.00,,---,0.00,VWS V15.00,2017-02-21 13:34:00,
2017-02-21 08:39:00,67.6,61.9,30.05,NNE,19,0.0,2.0,82,0.00,,---,0.00,VWS V15.00,2017-02-21 13:39:00,
2017-02-21 08:44:00,67.9,61.9,30.05,NNE,22,0.0,2.0,81,0.00,,---,0.00,VWS V15.00,2017-02-21 13:44:00,
2017-02-21 08:49:00,68.3,62.2,30.05,NNE,19,1.0,2.0,81,0.00,,---,0.00,VWS V15.00,2017-02-21 13:49:00,
2017-02-21 08:54:00,68.7,62.3,30.05,NNE,19,1.0,2.0,80,0.00,,---,0.00,VWS V15.00,2017-02-21 13:54:00,
2017-02-21 08:59:00,69.0,62.6,30.04,NNE,19,2.0,2.0,80,0.00,,---,0.00,VWS V15.00,2017-02-21 13:59:00,
2017-02-21 09:04:00,69.2,62.4,30.04,NNE,20,0.0,2.0,79,0.00,,---,0.00,VWS V15.00,2017-02-21 14:04:00,
2017-02-21 09:09:00,69.4,62.6,30.05,NNE,19,2.0,2.0,79,0.00,,---,0.00,VWS V15.00,2017-02-21 14:09:00,
2017-02-21 09:14:00,69.7,62.5,30.05,NNE,20,0.0,2.0,78,0.00,,---,0.00,VWS V15.00,2017-02-21 14:14:00,
2017-02-21 09:19:00,70.0,62.1,30.05,NNE,23,1.0,2.0,76,0.00,,---,0.00,VWS V15.00,2017-02-21 14:19:00,
2017-02-21 09:24:00,70.5,62.6,30.05,NNE,21,1.0,2.0,76,0.00,,---,0.00,VWS V15.00,2017-02-21 14:24:00,
2017-02-21 09:29:00,70.8,62.9,30.05,NNE,21,0.0,2.0,76,0.00,,---,0.00,VWS V15.00,2017-02-21 14:29:00,
2017-02-21 09:34:00,71.2,62.9,30.04,NNE,21,0.0,2.0,75,0.00,,---,0.00,VWS V15.00,2017-02-21 14:34:00,
2017-02-21 09:39:00,71.7,61.4,30.04,NNE,21,4.0,4.0,70,0.00,,---,0.00,VWS V15.00,2017-02-21 14:39:00,
2017-02-21 09:44:00,72.6,60.2,30.04,NNE,23,2.0,8.0,65,0.00,,---,0.00,VWS V15.00,2017-02-21 14:44:00,
2017-02-21 09:49:00,73.1,60.2,30.03,NNE,23,5.0,9.0,64,0.00,,---,0.00,VWS V15.00,2017-02-21 14:49:00,
2017-02-21 09:54:00,73.4,60.5,30.04,NNE,24,4.0,9.0,64,0.00,,---,0.00,VWS V15.00,2017-02-21 14:54:00,
2017-02-21 09:59:00,73.9,61.4,30.04,NNE,22,1.0,9.0,65,0.00,,---,0.00,VWS V15.00,2017-02-21 14:59:00,
2017-02-21 10:04:00,73.9,61.4,30.04,NNE,21,5.0,10.0,65,0.00,,---,0.00,VWS V15.00,2017-02-21 15:04:00,
2017-02-21 10:09:00,73.6,62.0,30.05,NNE,22,6.0,10.0,67,0.00,,---,0.00,VWS V15.00,2017-02-21 15:09:00,
2017-02-21 10:14:00,73.4,60.9,30.05,NNE,21,4.0,12.0,65,0.00,,---,0.00,VWS V15.00,2017-02-21 15:14:00,
2017-02-21 10:19:00,73.4,61.4,30.05,NNE,24,5.0,12.0,66,0.00,,---,0.00,VWS V15.00,2017-02-21 15:19:00,
2017-02-21 10:24:00,73.6,61.1,30.04,North,360,5.0,12.0,65,0.00,,---,0.00,VWS V15.00,2017-02-21 15:24:00,
2017-02-21 10:29:00,73.8,60.9,30.04,NNE,23,4.0,12.0,64,0.00,,---,0.00,VWS V15.00,2017-02-21 15:29:00,
2017-02-21 10:34:00,74.2,60.8,30.05,NNE,26,9.0,9.0,63,0.00,,---,0.00,VWS V15.00,2017-02-21 15:34:00,
2017-02-21 10:39:00,74.2,60.4,30.04,NNE,22,8.0,10.0,62,0.00,,---,0.00,VWS V15.00,2017-02-21 15:39:00,
2017-02-21 10:44:00,74.3,60.9,30.04,NNE,26,4.0,10.0,63,0.00,,---,0.00,VWS V15.00,2017-02-21 15:44:00,
2017-02-21 10:49:00,74.3,60.0,30.04,NNE,22,5.0,13.0,61,0.00,,---,0.00,VWS V15.00,2017-02-21 15:49:00,
2017-02-21 10:54:00,74.1,60.3,30.04,NNE,24,7.0,13.0,62,0.00,,---,0.00,VWS V15.00,2017-02-21 15:54:00,
2017-02-21 10:59:00,74.2,60.4,30.04,NNE,25,4.0,13.0,62,0.00,,---,0.00,VWS V15.00,2017-02-21 15:59:00,
2017-02-21 11:04:00,74.3,60.9,30.03,NNE,22,4.0,10.0,63,0.00,,---,0.00,VWS V15.00,2017-02-21 16:04:00,
2017-02-21 11:09:00,74.7,61.7,30.03,NNE,25,2.0,11.0,64,0.00,,---,0.00,VWS V15.00,2017-02-21 16:09:00,
2017-02-21 11:14:00,74.9,60.6,30.04,NNE,25,9.0,12.0,61,0.00,,---,0.00,VWS V15.00,2017-02-21 16:14:00,
2017-02-21 11:19:00,74.9,60.6,30.04,NNE,28,6.0,12.0,61,0.00,,---,0.00,VWS V15.00,2017-02-21 16:19:00,
2017-02-21 11:24:00,74.8,60.9,30.03,NNE,24,7.0,12.0,62,0.00,,---,0.00,VWS V15.00,2017-02-21 16:24:00,
2017-02-21 11:29:00,74.8,60.5,30.03,North,360,7.0,12.0,61,0.00,,---,0.00,VWS V15.00,2017-02-21 16:29:00,
2017-02-21 11:34:00,74.7,60.4,30.03,NNE,22,7.0,12.0,61,0.00,,---,0.00,VWS V15.00,2017-02-21 16:34:00,
2017-02-21 11:39:00,74.6,59.8,30.03,NNE,23,4.0,13.0,60,0.00,,---,0.00,VWS V15.00,2017-02-21 16:39:00,
2017-02-21 11:44:00,74.8,60.5,30.03,NNE,26,3.0,13.0,61,0.00,,---,0.00,VWS V15.00,2017-02-21 16:44:00,
2017-02-21 11:49:00,75.1,60.3,30.03,NNE,29,7.0,13.0,60,0.00,,---,0.00,VWS V15.00,2017-02-21 16:49:00,
2017-02-21 11:54:00,75.4,60.1,30.03,NNE,18,5.0,13.0,59,0.00,,---,0.00,VWS V15.00,2017-02-21 16:54:00,
2017-02-21 11:59:00,76.0,60.2,30.03,North,360,5.0,13.0,58,0.00,,---,0.00,VWS V15.00,2017-02-21 16:59:00,
2017-02-21 12:04:00,76.1,59.3,30.02,North,360,5.0,11.0,56,0.00,,---,0.00,VWS V15.00,2017-02-21 17:04:00,
2017-02-21 12:09:00,75.7,59.4,30.02,NNE,26,10.0,12.0,57,0.00,,---,0.00,VWS V15.00,2017-02-21 17:09:00,
2017-02-21 12:14:00,75.4,59.1,30.02,NNE,20,5.0,12.0,57,0.00,,---,0.00,VWS V15.00,2017-02-21 17:14:00,
2017-02-21 12:19:00,75.1,59.3,30.01,NNE,23,5.0,12.0,58,0.00,,---,0.00,VWS V15.00,2017-02-21 17:19:00,
2017-02-21 12:24:00,75.6,60.3,30.01,NNE,19,4.0,12.0,59,0.00,,---,0.00,VWS V15.00,2017-02-21 17:24:00,
2017-02-21 12:29:00,75.9,60.1,30.01,NNE,24,7.0,12.0,58,0.00,,---,0.00,VWS V15.00,2017-02-21 17:29:00,
2017-02-21 12:34:00,76.1,60.3,30.01,North,360,3.0,9.0,58,0.00,,---,0.00,VWS V15.00,2017-02-21 17:34:00,
2017-02-21 12:39:00,75.8,59.5,30.01,North,360,6.0,9.0,57,0.00,,---,0.00,VWS V15.00,2017-02-21 17:39:00,
2017-02-21 12:44:00,75.6,59.8,30.00,North,360,5.0,10.0,58,0.00,,---,0.00,VWS V15.00,2017-02-21 17:44:00,
2017-02-21 12:49:00,75.9,60.1,30.00,North,360,4.0,10.0,58,0.00,,---,0.00,VWS V15.00,2017-02-21 17:49:00,
2017-02-21 12:54:00,76.0,60.7,30.00,North,360,10.0,10.0,59,0.00,,---,0.00,VWS V15.00,2017-02-21 17:54:00,
2017-02-21 12:59:00,75.7,60.4,29.99,North,360,7.0,11.0,59,0.00,,---,0.00,VWS V15.00,2017-02-21 17:59:00,
2017-02-21 13:04:00,76.0,61.6,29.99,North,360,10.0,13.0,61,0.00,,---,0.00,VWS V15.00,2017-02-21 18:04:00,
2017-02-21 13:09:00,75.9,60.6,29.99,North,360,5.0,13.0,59,0.00,,---,0.00,VWS V15.00,2017-02-21 18:09:00,
2017-02-21 13:14:00,75.6,61.7,29.98,North,360,6.0,14.0,62,0.00,,---,0.00,VWS V15.00,2017-02-21 18:14:00,
2017-02-21 13:19:00,75.1,61.2,29.98,North,360,5.0,14.0,62,0.00,,---,0.00,VWS V15.00,2017-02-21 18:19:00,
2017-02-21 13:24:00,75.5,62.0,29.98,NNE,24,3.0,14.0,63,0.00,,---,0.00,VWS V15.00,2017-02-21 18:24:00,
2017-02-21 13:29:00,75.3,61.4,29.98,NNE,22,6.0,14.0,62,0.00,,---,0.00,VWS V15.00,2017-02-21 18:29:00,
2017-02-21 13:34:00,75.1,61.7,29.97,North,360,7.0,10.0,63,0.00,,---,0.00,VWS V15.00,2017-02-21 18:34:00,
2017-02-21 13:39:00,75.3,61.4,29.97,North,360,6.0,12.0,62,0.00,,---,0.00,VWS V15.00,2017-02-21 18:39:00,
2017-02-21 13:44:00,75.4,61.9,29.97,North,360,3.0,12.0,63,0.00,,---,0.00,VWS V15.00,2017-02-21 18:44:00,
2017-02-21 13:49:00,75.7,61.8,29.97,North,360,8.0,12.0,62,0.00,,---,0.00,VWS V15.00,2017-02-21 18:49:00,
2017-02-21 13:54:00,75.6,62.1,29.96,NNE,22,9.0,15.0,63,0.00,,---,0.00,VWS V15.00,2017-02-21 18:54:00,
2017-02-21 13:59:00,75.2,61.8,29.96,NNE,21,12.0,15.0,63,0.00,,---,0.00,VWS V15.00,2017-02-21 18:59:00,
2017-02-21 14:04:00,75.2,61.8,29.96,NNE,23,3.0,15.0,63,0.00,,---,0.00,VWS V15.00,2017-02-21 19:04:00,
2017-02-21 14:09:00,75.4,61.9,29.96,NNE,24,3.0,15.0,63,0.00,,---,0.00,VWS V15.00,2017-02-21 19:09:00,
2017-02-21 14:14:00,75.1,61.2,29.96,NNE,22,4.0,15.0,62,0.00,,---,0.00,VWS V15.00,2017-02-21 19:14:00,
2017-02-21 14:19:00,74.7,60.8,29.96,NNE,23,4.0,15.0,62,0.00,,---,0.00,VWS V15.00,2017-02-21 19:19:00,
2017-02-21 14:24:00,74.7,60.8,29.96,NNE,26,9.0,15.0,62,0.00,,---,0.00,VWS V15.00,2017-02-21 19:24:00,
2017-02-21 14:29:00,74.7,60.8,29.96,NNE,29,9.0,15.0,62,0.00,,---,0.00,VWS V15.00,2017-02-21 19:29:00,
2017-02-21 14:34:00,75.0,61.1,29.95,NNE,20,6.0,12.0,62,0.00,,---,0.00,VWS V15.00,2017-02-21 19:34:00,
2017-02-21 14:39:00,75.3,61.4,29.95,NNE,26,7.0,12.0,62,0.00,,---,0.00,VWS V15.00,2017-02-21 19:39:00,
2017-02-21 14:44:00,75.0,60.2,29.95,NNE,26,6.0,14.0,60,0.00,,---,0.00,VWS V15.00,2017-02-21 19:44:00,